CAPE
0 0 0 0 0 0 0 0 0 0 0 7 0 16 145 14 0 3 341 866 1108 1023 1010 900 696 724 353 62 0 0 0 0 0 3 78 7 0 0 0 0 0 0 0 0 0 0 0 0 0
0 0 0 0 0 0 0 0 0 0 0 29 76 605 229 102 23 569 226 1399 1285 916 670 918 813 761 419 103 0 0 0 0 0 8 56 7 1 0 0 0 0 0 0 0 0 0 2 6 0
0 0 0 0 0 0 0 0 0 0 0 191 141 290 706 616 359 257 18 1485 1034 747 604 929 892 655 443 110 0 0 0 0 0 5 48 35 27 0 0 0 0 0 0 8 0 0 0 0 0
0 0 0 0 0 0 0 0 0 0 0 37 186 305 809 289 62 25 934 1367 784 877 447 762 753 577 413 129 0 0 0 0 0 13 0 0 0 0 0 0 0 0 108 134 27 0 0 0 0
0 0 0 0 0 0 0 0 0 0 0 0 4 841 994 1065 647 1357 1536 1052 1034 908 433 642 661 635 488 129 0 0 0 0 0 1 0 0 0 0 0 0 1 136 223 143 49 7 0 0 0
0 0 0 0 0 0 0 0 0 0 0 0 602 1196 1223 1660 1744 1650 1260 937 1116 864 574 861 723 619 516 82 0 0 0 0 0 0 0 0 0 0 0 0 111 244 205 66 5 0 0 0 0
0 0 0 0 0 0 0 0 0 0 0 0 58 907 1402 1538 1695 1420 877 1111 906 607 604 762 750 688 445 12 0 0 0 0 0 0 0 0 0 0 10 40 112 78 2 0 0 0 0 0 0
0 0 0 0 0 0 0 0 0 0 0 0 25 1535 1372 1566 1769 1360 809 820 590 346 543 800 686 599 246 0 0 0 0 0 0 0 0 0 0 0 5 0 0 0 0 0 0 0 0 0 0
0 0 0 0 0 0 0 0 0 0 0 0 55 1176 1582 1679 1751 1055 694 618 460 274 269 524 600 379 168 45 57 7 0 0 0 0 0 0 0 0 0 0 0 0 0 0 0 0 0 0 12
0 0 0 0 0 0 0 0 0 0 0 0 2269 1602 1713 1723 1677 925 585 506 317 50 35 159 249 167 119 172 95 0 0 0 0 0 0 0 0 0 0 0 0 0 0 0 0 0 0 4 35
0 0 0 0 0 0 0 0 0 0 0 0 1672 1813 1710 1651 1654 1116 532 348 218 25 18 41 32 83 31 21 0 0 0 0 0 0 0 0 0 0 6 0 0 0 0 0 0 3 19 30 121
0 0 0 0 0 0 0 0 0 0 0 0 493 1265 1637 1709 1540 1291 757 386 225 4 0 0 0 1 0 0 0 0 0 0 0 0 0 0 2 4 0 0 0 0 0 0 4 396 964 620 600
0 0 0 0 0 0 0 0 0 0 0 0 3 1131 1358 1500 1486 1447 945 563 351 9 0 0 0 0 0 0 0 0 0 0 5 27 9 34 55 17 0 0 0 0 0 86 149 994 905 510 478
0 0 0 0 0 0 0 0 0 0 0 0 0 493 1121 1491 1429 1537 1109 569 417 84 1 0 0 0 0 0 0 0 0 15 70 122 25 147 0 80 0 0 0 0 0 20 758 1022 901 495 459
0 0 0 0 0 0 0 0 0 0 0 0 0 0 867 1173 1348 1422 1292 773 529 170 56 0 25 0 0 0 0 0 23 66 137 100 48 50 121 31 0 2 0 260 479 959 625 436 124 52 117
0 0 0 0 0 0 0 0 0 0 0 0 0 0 953 851 794 713 1319 818 393 168 121 1 352 0 0 0 79 36 125 117 110 133 153 204 42 94 0 166 582 698 642 443 91 3 0 13 133
0 0 0 0 0 0 0 0 0 0 0 0 0 0 0 500 498 57 500 767 350 261 185 125 795 145 597 569 499 255 422 307 674 426 251 168 29 351 439 1055 849 530 287 20 0 0 77 68 148
0 0 0 0 0 0 0 0 0 0 0 0 0 0 0 3 6 46 61 157 493 403 365 330 704 584 779 729 523 468 582 629 651 426 155 134 141 497 755 701 318 101 58 18 0 0 97 28 0
0 0 30 0 0 2 3 0 0 0 0 0 0 0 0 0 0 0 0 252 580 775 758 767 795 904 782 782 757 809 616 88 603 601 654 701 948 789 684 325 73 97 5 0 0 0 0 0 0
0 0 1 3 0 16 12 0 0 0 0 0 0 0 0 0 531 535 650 397 492 1164 1199 1246 1035 936 955 873 979 911 397 660 618 640 575 490 409 309 207 122 9 9 0 0 0 0 0 0 0
0 0 0 0 0 0 0 0 0 0 0 0 0 0 0 0 581 381 269 97 15 233 1182 1435 1254 1145 1181 1146 1176 615 697 634 480 279 167 89 26 4 0 0 0 0 0 0 0 0 0 0 0
0 0 0 0 0 0 5 0 0 0 0 0 0 0 0 0 536 377 348 29 0 505 695 1369 1437 1267 1514 1316 921 482 603 713 406 171 4 0 0 0 0 0 0 0 0 0 0 0 0 0 0
5 0 0 0 0 0 0 0 0 0 0 0 0 0 0 0 1024 453 1 0 1 463 340 1466 1229 1504 1686 1361 838 527 730 421 127 0 0 0 0 0 0 0 0 0 0 0 0 0 0 0 0
1 3 0 0 0 0 0 0 0 0 0 0 0 0 0 0 1391 925 1333 860 1181 1355 1483 1652 1371 1264 1432 1225 1090 809 563 328 101 0 0 0 0 0 0 0 0 0 0 0 0 0 0 0 0
3 12 0 0 0 0 0 0 0 0 0 0 0 0 0 0 1280 1305 1391 1293 1238 1205 1510 1389 1179 1743 1338 1327 1446 963 509 285 65 0 0 0 0 0 0 0 0 0 0 0 0 0 0 0 0
28 15 1 3 0 0 0 0 0 0 0 0 0 0 0 0 1400 1332 1255 1394 1163 1109 1301 1346 1319 1286 1352 1653 1382 810 459 184 17 0 0 0 0 0 0 0 0 0 0 0 0 0 0 0 0
29 3 12 6 2 0 0 0 6 0 0 0 0 0 0 0 1430 1326 1022 1258 1228 1523 1513 1379 1248 1713 1591 1267 996 773 405 53 0 0 0 0 0 0 0 0 0 0 0 0 0 0 0 0 0
50 10 0 1 0 0 0 0 0 0 0 1 0 0 0 411 1180 1329 1448 1452 1413 1488 1430 1139 1765 1581 1366 1001 582 157 3 0 0 0 0 0 0 0 0 0 0 0 0 0 0 0 0 0 0
58 19 0 0 4 0 0 0 0 0 3 2 0 0 0 777 1066 1242 1483 1504 1359 1253 1171 1319 1391 1188 838 333 41 0 0 0 0 0 0 0 0 0 0 0 0 0 0 0 0 0 0 0 0
53 0 0 0 0 2 1 0 0 0 0 2 0 0 0 276 826 1235 1347 849 1175 1239 1276 1361 951 652 304 52 0 0 0 0 0 0 0 0 0 0 0 0 0 0 0 0 0 0 0 0 0
CIN
-0 -0 -0 -0 -0 -0 -0 -0 -0 -0 -0 -71 -0 -115 -108 -173 -0 -6 -140 -207 -211 -256 -220 -223 -269 -267 -326 -444 -0 -0 -0 -0 -0 -332 -474 -526 -0 -0 -0 -0 -0 -0 -0 -0 -0 -0 -0 -0 -0
-0 -0 -0 -0 -0 -0 -0 -0 -0 -0 -0 -62 -72 -180 -164 -161 -270 -193 -210 -156 -186 -294 -305 -233 -231 -265 -323 -421 -0 -0 -0 -0 -0 -377 -467 -484 -128 -0 -0 -0 -0 -0 -0 -0 -0 -0 -142 -132 -0
-0 -0 -0 -0 -0 -0 -0 -0 -0 -0 -0 -55 -39 -57 -61 -110 -200 -259 -554 -308 -289 -341 -336 -247 -232 -284 -320 -405 -0 -0 -0 -0 -0 -367 -486 -496 -479 -42 -0 -0 -0 -0 -0 -306 -0 -0 -0 -0 -0
-0 -0 -0 -0 -0 -0 -0 -0 -0 -0 -0 -38 -50 -75 -102 -175 -266 -318 -337 -271 -330 -381 -408 -303 -281 -293 -321 -401 -0 -0 -0 -0 -0 -493 -0 -15 -0 -0 -0 -0 -0 -0 -336 -292 -339 -0 -0 -0 -0
-0 -0 -0 -0 -0 -0 -0 -0 -0 -0 -0 -0 -0 -78 -109 -145 -175 -254 -267 -249 -306 -375 -448 -352 -310 -270 -294 -414 -0 -0 -0 -0 -0 -131 -0 -0 -0 -0 -0 -0 -55 -324 -264 -276 -299 -354 -0 -0 -0
-0 -0 -0 -0 -0 -0 -0 -0 -0 -0 -0 -0 -50 -96 -120 -105 -137 -172 -214 -273 -306 -374 -427 -313 -302 -278 -275 -435 -0 -0 -0 -0 -0 -0 -0 -0 -0 -0 -0 -0 -332 -277 -276 -313 -166 -0 -0 -0 -0
-0 -0 -0 -0 -0 -0 -0 -0 -0 -0 -0 -0 -19 -64 -163 -105 -144 -213 -221 -322 -279 -364 -437 -326 -285 -267 -287 -481 -0 -0 -0 -0 -0 -0 -0 -0 -0 -0 -520 -407 -345 -351 -87 -0 -0 -0 -0 -0 -0
-0 -0 -0 -0 -0 -0 -0 -0 -0 -0 -0 -0 -2 -71 -117 -119 -138 -155 -315 -325 -303 -402 -382 -321 -289 -286 -362 -0 -0 -0 -0 -0 -0 -0 -0 -0 -0 -0 -520 -0 -0 -0 -0 -0 -0 -0 -0 -0 -0
-0 -0 -0 -0 -0 -0 -0 -0 -0 -0 -0 -0 -13 -37 -107 -70 -90 -121 -309 -344 -330 -425 -452 -353 -317 -345 -408 -485 -448 -298 -0 -0 -0 -0 -0 -0 -0 -0 -0 -0 -0 -0 -0 -0 -0 -0 -0 -0 -235
-0 -0 -0 -0 -0 -0 -0 -0 -0 -0 -0 -0 -30 -98 -67 -111 -104 -128 -251 -361 -382 -483 -441 -453 -408 -410 -463 -383 -405 -0 -0 -0 -0 -0 -0 -0 -0 -0 -0 -0 -0 -0 -0 -0 -0 -0 -0 -158 -198
-0 -0 -0 -0 -0 -0 -0 -0 -0 -0 -0 -0 -36 -41 -54 -71 -89 -127 -221 -350 -422 -452 -493 -525 -555 -490 -540 -536 -0 -0 -0 -0 -0 -0 -0 -0 -0 -0 -492 -0 -0 -0 -0 -0 -0 -204 -258 -195 -136
-0 -0 -0 -0 -0 -0 -0 -0 -0 -0 -0 -0 -44 -53 -39 -60 -115 -125 -164 -320 -407 -231 -0 -0 -0 -247 -0 -0 -0 -0 -0 -0 -0 -0 -0 -0 -56 -120 -0 -0 -0 -0 -0 -0 -14 -84 -34 -44 -34
-0 -0 -0 -0 -0 -0 -0 -0 -0 -0 -0 -0 -3 -41 -45 -44 -74 -96 -122 -223 -328 -199 -0 -0 -0 -0 -0 -0 -0 -0 -0 -0 -210 -502 -539 -467 -412 -472 -0 -0 -0 -0 -23 -209 -122 -21 -26 -24 -39
-0 -0 -0 -0 -0 -0 -0 -0 -0 -0 -0 -0 -0 -39 -28 -39 -50 -57 -56 -153 -285 -389 -89 -0 -0 -0 -0 -0 -0 -0 -0 -532 -405 -357 -445 -311 -0 -348 -1 -0 -0 -0 -0 -242 -36 -18 -28 -50 -65
-0 -0 -0 -0 -0 -0 -0 -0 -0 -0 -0 -0 -0 -0 -24 -38 -34 -51 -46 -128 -260 -379 -458 -0 -486 -0 -0 -0 -0 -0 -493 -415 -325 -309 -366 -401 -323 -414 -1 -313 -0 -124 -51 -16 -23 -41 -85 -100 -148
-0 -0 -0 -0 -0 -0 -0 -0 -0 -0 -0 -0 -0 -0 -23 -32 -42 -161 -67 -115 -212 -320 -383 -77 -275 -0 -0 -0 -351 -435 -327 -292 -283 -249 -273 -251 -403 -358 -1 -233 -73 -40 -41 -43 -117 -187 -0 -64 -112
-0 -0 -0 -0 -0 -0 -0 -0 -0 -0 -0 -0 -0 -0 -0 -26 -56 -207 -187 -98 -164 -258 -317 -299 -144 -301 -176 -150 -159 -236 -133 -174 -126 -167 -222 -259 -411 -209 -158 -41 -46 -59 -98 -218 -0 -0 -121 -114 -111
-0 -0 -0 -0 -0 -0 -0 -0 -0 -0 -0 -0 -0 -0 -0 -106 -36 -72 -177 -59 -116 -202 -206 -175 -128 -146 -77 -95 -128 -94 -90 -80 -104 -173 -249 -323 -338 -146 -81 -68 -110 -229 -206 -203 -33 -7 -130 -24 -0
-0 -0 -85 -0 -0 -74 -56 -0 -0 -0 -0 -0 -0 -0 -0 -0 -0 -0 -0 -20 -91 -107 -131 -111 -107 -78 -50 -65 -84 -55 -119 -234 -152 -186 -134 -127 -85 -81 -72 -178 -246 -225 -252 -0 -0 -0 -0 -0 -0
-0 -0 -8 -1 -0 -27 -52 -0 -0 -0 -0 -0 -0 -0 -0 -0 -181 -85 -39 -38 -5 -49 -84 -91 -104 -64 -51 -58 -37 -28 -114 -111 -149 -139 -147 -198 -198 -214 -247 -277 -312 -228 -0 -0 -0 -0 -0 -0 -0
-0 -0 -0 -0 -0 -0 -0 -0 -0 -0 -0 -0 -0 -0 -0 -0 -114 -156 -159 -256 -95 -10 -14 -88 -88 -63 -27 -30 -14 -48 -91 -142 -193 -248 -307 -344 -419 -212 -0 -0 -0 -0 -0 -0 -0 -0 -0 -0 -0
-2 -0 -0 -0 -0 -0 -8 -0 -0 -0 -0 -0 -0 -0 -0 -0 -129 -171 -188 -387 -0 -53 -66 -56 -71 -54 -20 -15 -19 -81 -76 -114 -219 -296 -112 -0 -0 -0 -0 -0 -0 -0 -0 -0 -0 -0 -0 -0 -0
-17 -0 -0 -0 -0 -0 -0 -0 -0 -0 -0 -0 -0 -0 -0 -0 -82 -114 -5 -0 -2 -105 -1 -32 -37 -27 -11 -11 -34 -82 -122 -239 -366 -154 -0 -0 -0 -0 -0 -0 -0 -0 -0 -0 -0 -0 -0 -0 -0
-12 -17 -0 -0 -0 -0 -0 -0 -0 -0 -0 -0 -0 -0 -0 -0 -47 -50 -116 -161 -53 -21 -32 -43 -58 -32 -16 -13 -22 -90 -201 -299 -400 -0 -0 -0 -0 -0 -0 -0 -0 -0 -0 -0 -0 -0 -0 -0 -0
-10 -20 -0 -0 -0 -0 -0 -0 -0 -0 -0 -0 -0 -0 -0 -0 -54 -72 -76 -83 -58 -24 -42 -29 -77 -9 -14 -10 -20 -73 -188 -285 -411 -0 -0 -0 -0 -0 -0 -0 -0 -0 -0 -0 -0 -0 -0 -0 -0
-4 -13 -18 -5 -0 -0 -0 -0 -0 -0 -0 -0 -0 -0 -0 -0 -94 -94 -102 -124 -89 -85 -96 -59 -28 -25 -11 -15 -28 -111 -180 -283 -470 -0 -0 -0 -0 -0 -0 -0 -0 -0 -0 -0 -0 -0 -0 -0 -0
-11 -38 -48 -13 -22 -0 -0 -0 -171 -9 -0 -0 -0 -0 -0 -0 -74 -85 -130 -137 -107 -69 -49 -45 -45 -8 -13 -28 -74 -104 -187 -382 -0 -0 -0 -0 -0 -0 -0 -0 -0 -0 -0 -0 -0 -0 -0 -0 -0
-36 -37 -0 -16 -0 -0 -0 -0 -0 -0 -0 -23 -0 -0 -0 -50 -45 -80 -125 -123 -91 -73 -79 -78 -6 -15 -28 -63 -110 -313 -308 -0 -0 -0 -0 -0 -0 -0 -0 -0 -0 -0 -0 -0 -0 -0 -0 -0 -0
-9 -19 -0 -9 -9 -0 -0 -0 -0 -0 -32 -90 -0 -0 -0 -38 -59 -67 -101 -132 -133 -101 -44 -14 -18 -63 -128 -226 -342 -0 -0 -0 -0 -0 -0 -0 -0 -0 -0 -0 -0 -0 -0 -0 -0 -0 -0 -0 -0
-19 -0 -0 -0 -0 -2 -0 -0 -0 -0 -0 -267 -0 -0 -0 -63 -103 -148 -119 -186 -131 -67 -11 -7 -36 -134 -264 -364 -0 -0 -0 -0 -0 -0 -0 -0 -0 -0 -0 -0 -0 -0 -0 -0 -0 -0 -0 -0 -0
Wind_Speed
27 26 23 22 26 30 40 35 36 38 34 23 18 14 11 10 10 20 16 5 6 8 5 9 13 13 13 12 11 11 12 14 14 15 15 16 16 17 18 19 20 21 21 21 21 21 21 21 21
24 23 21 24 30 38 41 37 41 39 29 12 10 9 8 13 3 8 8 5 10 8 7 7 10 12 13 12 11 10 10 12 13 14 14 15 15 16 17 18 19 20 20 20 20 20 20 20 19
23 20 22 23 32 41 38 36 39 39 20 7 12 8 10 8 3 9 5 12 11 8 7 9 9 10 12 11 11 10 9 10 11 13 13 14 15 15 16 17 18 18 18 19 19 19 19 18 17
19 20 25 32 37 36 45 41 43 40 36 22 12 14 11 8 9 8 13 17 15 8 9 10 10 10 12 12 11 11 9 9 10 11 12 13 14 15 16 16 17 17 18 18 18 18 17 16 16
20 23 32 36 42 44 42 43 45 43 40 34 33 15 9 6 7 12 14 15 15 7 9 9 10 10 11 12 11 10 9 8 8 10 12 13 14 15 15 16 16 16 16 16 16 16 15 14 13
25 24 34 42 43 40 45 43 43 43 41 36 11 7 12 6 11 11 14 12 10 9 9 10 12 10 10 11 11 10 9 7 7 9 11 12 14 14 15 15 15 15 15 15 15 14 12 12 11
28 33 40 42 42 41 43 40 43 42 41 37 22 18 6 4 11 14 11 11 11 11 10 7 10 11 10 10 10 10 9 6 6 8 10 11 13 14 14 14 13 13 13 13 12 11 11 11 11
28 32 42 43 45 47 43 39 41 40 43 38 30 17 13 7 11 11 8 11 11 13 11 8 7 9 8 9 10 9 8 6 5 7 9 11 12 13 13 13 12 12 11 11 11 11 11 13 12
30 42 45 46 45 44 42 39 38 36 42 38 32 10 8 11 10 9 10 8 7 9 9 7 7 6 7 7 7 8 7 5 4 5 8 10 11 13 13 12 11 10 10 10 10 10 12 14 16
28 41 46 43 45 45 45 42 40 35 36 37 6 6 13 14 12 10 9 9 8 8 10 11 8 8 7 5 5 5 5 5 3 5 7 9 11 12 12 11 10 9 9 10 10 10 13 12 15
27 39 40 45 43 45 48 48 39 35 37 31 12 11 13 12 10 10 9 10 9 9 11 14 14 8 6 7 6 5 4 5 5 8 8 11 11 11 11 10 9 8 10 10 12 11 14 13 17
35 37 38 39 46 47 50 46 46 38 39 37 28 16 16 15 13 14 12 11 11 10 12 13 13 10 7 11 7 7 7 5 6 8 11 11 10 9 8 8 6 7 8 8 12 18 24 21 25
33 35 37 39 39 45 47 50 48 45 38 35 32 20 21 18 14 14 15 15 13 12 14 14 14 11 10 12 9 9 7 6 9 9 11 9 6 7 8 11 10 9 13 16 20 24 26 25 26
32 37 37 39 38 39 45 50 46 49 38 36 33 24 24 23 19 16 18 17 17 15 16 17 16 14 15 12 11 11 9 9 8 8 8 5 7 8 8 11 13 16 16 20 22 22 24 27 28
34 38 39 39 38 40 40 52 53 47 41 38 33 28 24 25 23 20 22 21 20 18 17 17 14 16 14 17 11 11 12 9 8 6 5 5 7 9 11 12 13 14 18 19 20 22 24 25 25
34 35 38 35 37 41 38 54 54 47 42 41 34 30 19 24 23 19 23 23 21 20 20 16 14 16 12 14 8 11 8 7 5 1 5 5 8 9 10 12 13 16 18 17 19 22 23 23 21
25 40 42 42 35 36 36 50 55 49 45 44 39 36 28 24 26 23 25 29 26 22 21 19 15 14 10 9 8 8 4 1 2 3 4 6 8 9 11 13 15 17 18 19 21 23 21 23 23
29 37 41 44 34 34 42 48 51 55 50 49 42 41 41 25 30 30 35 43 31 25 24 20 16 15 11 9 8 6 4 7 2 5 4 7 8 8 10 13 15 17 18 21 23 24 22 22 23
20 34 39 45 40 36 40 50 50 48 55 53 47 44 45 32 26 27 42 44 31 24 23 21 18 15 13 13 12 8 4 4 2 4 6 8 10 11 12 13 15 17 18 20 24 21 21 24 25
15 15 40 40 35 31 36 39 39 47 54 56 51 47 46 31 19 24 25 22 32 25 27 22 18 15 15 15 12 7 4 3 4 6 7 9 11 12 14 14 16 16 18 20 22 21 19 22 25
7 31 37 36 35 36 39 42 41 41 48 59 55 53 45 34 27 21 25 26 32 35 30 23 18 16 16 14 10 7 3 2 2 5 7 10 11 13 14 15 16 17 18 19 20 21 20 20 23
8 27 34 34 35 35 24 42 40 39 47 57 59 56 49 33 30 26 21 25 27 23 23 20 16 16 15 14 9 9 6 4 1 4 7 10 13 14 15 15 16 17 18 19 20 20 21 20 22
5 22 28 33 37 37 31 32 42 40 43 53 56 56 50 39 29 28 26 22 25 28 20 16 15 16 12 11 9 8 5 4 3 4 7 10 12 13 15 15 15 16 18 19 19 20 20 22 22
12 12 28 34 36 44 40 33 42 43 41 48 49 52 46 39 30 29 26 24 21 16 16 17 15 14 12 11 11 10 10 6 3 4 6 9 10 12 13 14 15 16 17 18 19 20 20 22 23
10 18 27 26 26 36 24 34 44 29 42 46 53 51 48 39 33 30 28 24 23 18 18 17 15 15 14 12 9 11 9 6 9 6 6 7 9 10 12 13 14 15 16 17 18 20 21 21 23
6 6 24 23 23 33 34 32 40 45 46 47 52 54 48 39 33 32 28 24 23 21 20 20 19 17 15 11 8 8 7 6 6 8 7 8 9 10 12 13 13 15 16 17 18 19 20 22 22
3 18 29 28 30 27 24 35 40 38 46 50 58 59 52 39 34 34 29 24 26 24 24 23 23 18 15 11 8 6 5 4 5 6 9 9 10 11 12 12 13 15 15 16 18 20 21 22 23
1 19 23 28 24 24 24 27 34 25 38 43 56 62 53 34 34 34 30 25 25 25 25 22 24 18 15 11 9 6 5 5 4 5 8 9 11 12 11 11 11 13 14 17 18 19 20 21 22
9 24 25 30 30 23 22 26 15 13 29 27 40 58 53 37 34 32 29 26 25 26 24 25 21 20 17 12 9 6 4 4 5 5 8 11 11 11 10 10 11 12 15 17 18 19 20 21 22
11 29 32 32 30 30 31 35 27 21 13 17 45 47 55 38 35 32 32 29 28 28 26 26 24 21 17 13 10 7 5 4 5 6 8 10 10 10 9 9 11 12 15 17 17 18 19 21 22
Wind_Direction
285 281 284 281 270 264 255 259 255 254 266 300 318 318 313 317 311 264 232 283 96 106 116 109 107 106 104 101 99 95 90 86 83 81 78 77 76 73 71 69 71 71 69 64 63 61 57 58 59
286 285 281 275 264 257 255 256 250 246 267 303 318 28 0 311 38 326 318 71 220 105 113 121 114 110 109 106 104 102 95 87 84 83 79 78 76 75 73 71 73 70 64 61 59 59 58 57 56
283 282 274 271 264 255 258 257 251 241 282 296 311 352 332 337 94 107 61 125 123 101 112 118 117 115 114 112 108 106 100 89 83 81 79 80 78 77 74 74 73 66 63 62 59 59 56 56 53
285 277 272 264 260 262 252 254 246 252 266 208 313 297 340 18 93 87 98 115 118 124 118 120 119 117 118 116 112 110 104 93 83 80 81 81 81 80 77 76 72 69 67 61 58 56 54 52 50
279 276 264 263 261 256 254 251 245 253 264 271 262 289 319 16 78 106 113 116 115 151 121 120 119 120 122 120 116 114 109 98 85 81 82 84 84 83 79 78 74 69 67 60 55 54 53 52 50
272 271 264 259 261 261 253 253 253 256 256 264 291 284 307 78 104 117 117 114 111 138 125 115 118 122 125 123 120 116 111 102 88 83 85 85 86 85 86 82 74 71 64 58 53 54 56 54 51
267 265 262 263 262 261 254 253 251 256 260 265 280 274 288 164 122 122 122 105 110 121 131 137 117 122 127 127 122 117 112 105 94 90 86 84 86 90 88 84 76 79 66 62 59 59 58 47 42
270 269 262 261 259 258 256 259 252 256 257 260 261 262 251 193 126 130 126 117 111 117 124 137 127 124 134 133 127 119 112 108 99 89 85 88 90 91 89 88 87 87 76 71 62 56 48 37 33
270 261 261 259 258 260 258 262 261 261 256 262 272 270 166 136 135 146 140 138 129 124 135 138 180 164 145 143 137 125 118 117 108 92 90 90 90 95 99 98 96 94 84 65 59 52 37 25 17
269 262 260 264 263 262 259 263 261 274 267 256 310 158 153 154 161 154 173 164 157 146 147 136 178 190 153 159 160 143 128 124 117 98 97 95 93 104 104 101 107 103 74 49 47 39 26 25 19
277 268 269 264 264 263 259 260 269 269 261 265 221 189 178 171 184 179 170 175 166 157 156 144 143 167 171 153 161 149 136 126 118 113 101 112 106 112 115 102 75 92 52 51 35 34 22 17 12
278 274 271 271 265 263 259 262 258 263 257 263 247 211 196 192 198 208 188 191 173 167 160 153 150 155 168 138 157 148 139 135 125 119 120 115 121 115 67 63 94 75 53 54 29 18 14 16 5
286 282 278 272 271 264 262 256 254 256 264 268 254 224 222 224 215 210 210 201 190 183 173 162 155 158 149 145 148 143 141 137 126 122 121 108 53 40 40 19 45 61 37 23 9 3 1 3 1
293 288 286 278 274 269 260 256 255 249 262 264 259 239 229 226 219 220 211 200 191 186 176 166 159 155 143 152 146 141 137 134 124 118 110 41 5 17 44 22 10 357 13 5 2 3 4 359 357
296 290 284 277 276 269 265 254 248 247 255 260 261 262 230 228 226 228 209 200 188 187 180 175 173 159 153 149 150 143 139 132 129 109 79 46 13 32 17 10 14 18 10 8 7 7 3 7 6
297 293 283 280 277 267 266 251 247 247 251 253 259 255 230 232 236 246 221 209 197 187 183 181 181 164 163 156 166 147 140 131 127 86 87 47 48 25 11 15 23 12 6 11 9 3 6 18 24
306 287 279 272 274 270 262 254 248 246 249 250 252 249 255 235 238 246 240 236 204 192 185 183 182 177 178 169 165 149 154 264 117 93 76 21 15 14 19 16 13 5 9 4 360 356 7 6 9
312 298 279 268 273 274 260 255 251 245 247 246 248 248 249 252 241 232 249 246 200 197 196 191 190 184 184 178 190 209 225 281 137 97 33 28 10 24 20 16 11 8 4 356 349 348 0 2 4
322 291 275 263 267 279 273 253 252 250 240 241 244 246 245 258 240 240 242 251 201 186 191 194 193 188 186 204 216 223 155 107 322 9 357 344 355 16 19 17 15 7 0 360 347 352 2 356 358
335 315 255 266 266 278 273 264 258 248 239 238 240 244 241 252 230 233 222 221 237 209 197 202 195 186 190 212 219 224 159 90 58 32 6 345 2 9 13 18 9 10 7 1 355 359 11 8 5
325 295 263 261 270 271 273 264 255 252 242 235 238 240 242 246 229 223 233 235 228 219 204 202 194 188 196 208 211 217 185 232 353 18 2 2 10 9 11 14 16 17 16 8 4 359 4 18 19
308 304 274 273 272 265 284 261 257 254 240 232 234 235 239 242 225 225 222 223 231 228 215 201 189 193 194 203 200 201 184 165 317 356 18 17 13 13 16 18 21 21 13 7 5 7 10 21 22
306 315 289 268 268 271 276 268 252 253 243 229 230 231 235 235 217 220 224 213 227 231 167 205 197 195 193 187 194 167 175 159 90 40 26 28 25 25 23 27 29 18 17 20 19 14 17 22 30
341 335 288 265 269 260 262 270 255 247 240 231 230 229 233 227 216 217 224 225 224 203 201 203 196 183 198 181 165 160 149 140 120 69 48 39 27 22 24 27 20 19 22 26 21 21 26 30 31
341 331 282 270 272 248 281 270 247 258 242 236 227 227 229 227 215 213 216 219 223 216 208 207 196 189 189 184 175 152 142 142 120 98 77 52 38 31 35 32 26 27 33 34 30 34 34 35 34
7 341 268 277 276 265 278 265 228 220 215 232 227 226 228 230 211 207 209 210 209 206 215 214 201 197 186 183 179 164 145 131 113 99 82 63 51 48 46 40 33 35 42 36 42 45 47 41 38
314 296 259 264 243 253 227 248 248 227 224 227 226 223 225 226 213 208 205 206 207 202 198 199 188 196 188 180 172 167 169 132 114 86 78 64 62 57 49 39 39 40 44 49 48 47 45 44 39
306 297 261 244 253 259 223 239 208 247 226 235 217 218 220 220 215 208 207 201 197 192 191 189 197 179 174 174 197 182 143 123 105 87 79 73 67 61 51 40 39 34 50 55 53 51 47 45 42
89 251 245 234 231 223 230 206 243 280 235 238 222 216 218 217 212 209 208 203 200 196 187 186 182 163 178 181 173 169 149 125 100 83 77 80 71 63 55 44 41 53 53 56 58 54 51 45 39
181 239 226 232 230 230 230 233 258 269 256 318 221 217 218 220 214 212 209 206 195 193 197 185 182 177 163 177 165 174 182 117 96 86 84 80 71 67 60 55 51 53 53 52 55 50 47 42 36